Date,TemperatureHighF,TemperatureAvgF,TemperatureLowF,DewpointHighF,DewpointAvgF,DewpointLowF,HumidityHigh,HumidityAvg,HumidityLow,PressureMaxIn,PressureMinIn,WindSpeedMaxMPH,WindSpeedAvgMPH,GustSpeedMaxMPH,PrecipitationSumIn
2013-5-1,83.9,67.2,53.7,67.0,55.2,-99.9,93,74,49,30.06,29.76,11,-39,20,0.00
2013-5-2,53.0,40.7,38.5,47.0,29.3,-99.9,91,76,73,30.41,30.07,21,-54,26,0.03
2013-5-3,63.8,45.9,30.3,36.0,25.2,-99.9,92,56,24,30.41,30.06,20,-39,25,0.00
2013-5-4,65.9,48.8,31.8,40.0,26.2,-99.9,92,52,18,30.09,29.95,18,-37,24,0.00
2013-5-5,65.4,51.5,44.3,48.0,36.9,-99.9,92,65,51,30.19,30.08,12,-37,16,0.00
2013-5-6,76.4,57.1,40.1,53.0,42.2,-99.9,97,67,42,30.15,30.01,8,-40,14,0.00
2013-5-7,83.5,65.7,49.4,55.0,45.4,-99.9,94,57,30,30.09,29.91,7,-41,13,0.00
2013-5-8,86.5,69.1,58.0,64.0,47.1,-99.9,88,55,25,29.96,29.81,12,-48,23,0.20
2013-5-9,75.9,64.0,61.3,67.0,51.6,-99.9,93,75,61,29.96,29.84,11,-61,15,0.00
2013-5-10,76.0,64.2,59.2,63.0,52.8,-99.9,100,75,53,30.08,29.91,12,-39,14,0.00
2013-5-11,81.1,61.8,48.0,60.0,46.5,-99.9,97,68,34,30.22,30.08,14,-39,20,0.09
2013-5-12,78.7,60.0,43.3,49.0,33.5,-99.9,93,48,20,30.27,30.12,6,-51,14,0.01
2013-5-13,92.2,71.4,51.9,53.0,39.9,-99.9,76,37,20,30.18,30.02,9,-39,18,0.00
2013-5-14,89.3,73.1,62.8,59.0,43.9,-99.9,67,41,26,30.09,29.91,11,-58,18,0.00
2013-5-15,76.1,65.2,58.7,68.0,54.7,-99.9,97,79,55,29.96,29.73,10,-47,19,1.12
2013-5-16,67.8,56.3,60.2,66.0,41.0,-99.9,98,82,92,29.83,29.73,6,-124,14,0.27
2013-5-17,86.0,66.9,63.8,76.0,55.3,-99.9,99,82,70,29.86,29.76,8,-82,12,0.00
2013-5-18,89.5,77.7,70.5,75.0,66.5,-99.9,97,75,57,29.85,29.67,23,-27,23,0.00
2013-5-19,87.5,77.2,71.4,73.0,62.7,-99.9,81,67,60,29.76,29.54,18,-35,28,0.00
2013-5-20,88.3,73.9,63.1,74.0,64.3,-99.9,94,76,61,29.74,29.59,17,-16,25,1.77
2013-5-21,68.0,30.2,56.7,64.0,-24.3,-99.9,98,42,84,29.88,29.71,9,-531,30,0.85
2013-5-22,84.1,67.7,47.7,64.0,48.6,-99.9,100,62,41,29.96,29.85,7,-71,12,0.01
2013-5-23,84.7,65.5,58.0,70.0,50.3,-99.9,97,72,54,30.09,29.90,18,-82,33,0.37
2013-5-24,81.9,68.7,62.3,74.0,59.1,-99.9,95,81,72,30.14,30.04,9,-50,15,0.28
2013-5-25,80.1,65.1,63.8,72.0,57.3,-99.9,97,86,72,30.17,29.99,16,-51,17,0.73
2013-5-26,84.1,71.7,65.4,73.0,61.3,-99.9,97,79,68,30.06,29.88,14,-48,20,0.00
2013-5-27,82.2,72.9,70.2,72.0,64.0,-99.9,91,79,69,29.93,29.73,15,-26,25,0.00
2013-5-28,80.3,72.7,70.8,70.0,59.4,-99.9,87,71,66,29.83,29.65,25,-46,25,0.00
2013-5-29,78.8,70.5,62.9,72.0,61.6,-99.9,97,81,76,29.79,29.63,18,-36,33,0.68
2013-5-30,86.5,77.7,68.6,75.0,71.1,66.0,94,81,66,29.74,29.60,13,6,23,0.01
2013-5-31,88.9,77.2,74.2,77.0,64.1,-99.9,88,72,66,29.76,29.56,13,-47,24,0.00